Weather in Voskresenskoye

Russia / Ivanovo Oblast     56°41′58″N   40°57′56″E
В апреле 2022 года жителям России запретили посещать сайт meteo.paraplan.net по решению Генеральной прокуратуры. Аудитория сайта уменьшилась в 10 раз. Владельцы сайта не видят смысла в поддержке погодного сервера в таких условиях. Сайт будет закрыт в октябре.
temp.,
°C
wind,
m/s
gust,
m/s
humid.,
%
clouds,
%
prec.,
mm/h
press.,
hPa
HPBL,
m
29 september, thu
thu2900:00+6e4996100 0.8 1005424
03:00+6e3697100 1.1 1005284
06:00+6e1398100 0.0 1006148
09:00+9s1393100 0.0 1007284
12:00+12sw347584 0.0 1009877
15:00+13wsw346753 0.0 10101016
18:00+9s118759 0.0 101210
21:00+10se2485100 0.0 1014105
30 september, fri
fri3000:00+10sse289143 0.0 1015222
03:00+8sse259833 0.0 1016114
06:00+8sse2798100 0.0 1017165
09:00+11s3787100 0.0 1017306
12:00+16s4766100 0.0 1017826
15:00+17s4869100 0.0 10161052
18:00+14sse3108499 0.0 1017340
21:00+12sse31093100 0.5 1016332
1 october, sat
sat100:00+13s3996100 0.9 1016486
03:00+13sw2699100 2.4 1016439
06:00+13w1299100 0.3 101796
09:00+13wnw1196100 0.4 1017114
12:00+14n1089100 0.2 1016354
15:00+12nne2597100 3.3 1015262
18:00+12nne3798100 4.8 1014317
21:00+11ne2698100 6.1 1012247
2 october, sun
sun200:00+11e1398100 0.0 1011142
03:00+12e1299100 3.9 100893
06:00+12wsw1299100 3.4 100882
09:00+13sw2598100 3.5 1008318
12:00+14w2486100 0.4 1008601
15:00+12n359175 1.4 1009377
18:00+9n3693100 0.1 1011392
21:00+9nne2694100 0.1 1012410
3 october, mon
mon300:00+8nne3695100 0.0 1013291
03:00+8ne3794100 0.0 1013323
06:00+9ne389899 0.0 1011257
09:00+10ene41192100 0.0 1010370
12:00+13ene51191100 0.0 1009458
15:00+14e51292100 0.5 1007689
18:00+16ese51280100 0.5 1007719
21:00+16se61470100 0.5 10061109